Date_Time,Julian_Date,Latitude,Longitude,Instrument_Depth,U,V,Speed,Direction
(yyyy-mm-dd hh:mn:ss UTC),(JD),(+ deg. North),(+ deg. East),(m),(cm/s),(cm/s),(cm/s),(deg True)
1984-06-28 19:00:00 UTC,2445880.291667,29.6633,-93.4786,0090,6.37,15.76,17.0000,22.0000
1984-06-28 19:30:00 UTC,2445880.312500,29.6633,-93.4786,0090,9.01,14.42,17.0000,32.0000
1984-06-28 20:00:00 UTC,2445880.333333,29.6633,-93.4786,0090,9.03,11.98,15.0000,37.0000
1984-06-28 20:30:00 UTC,2445880.354167,29.6633,-93.4786,0090,9.35,9.03,13.0000,46.0000
1984-06-28 21:00:00 UTC,2445880.375000,29.6633,-93.4786,0090,9.23,5.99,11.0000,57.0000
1984-06-28 21:30:00 UTC,2445880.395833,29.6633,-93.4786,0090,7.00,3.88,8.0000,61.0000
1984-06-28 22:00:00 UTC,2445880.416667,29.6633,-93.4786,0090,7.13,3.63,8.0000,63.0000
1984-06-28 22:30:00 UTC,2445880.437500,29.6633,-93.4786,0090,7.52,2.74,8.0000,70.0000
1984-06-28 23:00:00 UTC,2445880.458333,29.6633,-93.4786,0090,7.65,2.34,8.0000,73.0000
1984-06-28 23:30:00 UTC,2445880.479167,29.6633,-93.4786,0090,6.44,2.74,7.0000,67.0000
1984-06-29 00:00:00 UTC,2445880.500000,29.6633,-93.4786,0090,5.48,2.44,6.0000,66.0000
1984-06-29 00:30:00 UTC,2445880.520833,29.6633,-93.4786,0090,4.53,2.11,5.0000,65.0000
1984-06-29 01:00:00 UTC,2445880.541667,29.6633,-93.4786,0090,3.94,3.08,5.0000,52.0000
1984-06-29 01:30:00 UTC,2445880.562500,29.6633,-93.4786,0090,3.21,3.83,5.0000,40.0000
1984-06-29 02:00:00 UTC,2445880.583333,29.6633,-93.4786,0090,3.36,4.97,6.0000,34.0000
1984-06-29 02:30:00 UTC,2445880.604167,29.6633,-93.4786,0090,3.39,6.12,7.0000,29.0000
1984-06-29 03:00:00 UTC,2445880.625000,29.6633,-93.4786,0090,2.16,6.66,7.0000,18.0000
1984-06-29 03:30:00 UTC,2445880.645833,29.6633,-93.4786,0090,-0.10,6.00,6.0000,359.0000
1984-06-29 04:00:00 UTC,2445880.666667,29.6633,-93.4786,0090,-2.39,6.58,7.0000,340.0000
1984-06-29 04:30:00 UTC,2445880.687500,29.6633,-93.4786,0090,-4.93,6.30,8.0000,322.0000
1984-06-29 05:00:00 UTC,2445880.708333,29.6633,-93.4786,0090,-7.77,6.29,10.0000,309.0000
1984-06-29 05:30:00 UTC,2445880.729167,29.6633,-93.4786,0090,-10.39,6.00,12.0000,300.0000
1984-06-29 06:00:00 UTC,2445880.750000,29.6633,-93.4786,0090,-12.22,4.45,13.0000,290.0000
1984-06-29 06:30:00 UTC,2445880.770833,29.6633,-93.4786,0090,-12.72,2.70,13.0000,282.0000
1984-06-29 07:00:00 UTC,2445880.791667,29.6633,-93.4786,0090,-11.91,1.46,12.0000,277.0000
1984-06-29 07:30:00 UTC,2445880.812500,29.6633,-93.4786,0090,-12.00,-0.21,12.0000,269.0000
1984-06-29 08:00:00 UTC,2445880.833333,29.6633,-93.4786,0090,-10.83,-1.91,11.0000,260.0000
1984-06-29 08:30:00 UTC,2445880.854167,29.6633,-93.4786,0090,-9.66,-2.59,10.0000,255.0000
1984-06-29 09:00:00 UTC,2445880.875000,29.6633,-93.4786,0090,-10.67,-2.66,11.0000,256.0000
1984-06-29 09:30:00 UTC,2445880.895833,29.6633,-93.4786,0090,-10.67,-2.66,11.0000,256.0000
1984-06-29 10:00:00 UTC,2445880.916667,29.6633,-93.4786,0090,-9.61,-2.76,10.0000,254.0000
1984-06-29 10:30:00 UTC,2445880.937500,29.6633,-93.4786,0090,-8.56,-2.78,9.0000,252.0000
1984-06-29 11:00:00 UTC,2445880.958333,29.6633,-93.4786,0090,-7.79,-1.80,8.0000,257.0000
1984-06-29 11:30:00 UTC,2445880.979167,29.6633,-93.4786,0090,-8.00,-0.14,8.0000,269.0000
1984-06-29 12:00:00 UTC,2445881.000000,29.6633,-93.4786,0090,-9.66,2.59,10.0000,285.0000
1984-06-29 12:30:00 UTC,2445881.020833,29.6633,-93.4786,0090,-9.62,5.33,11.0000,299.0000
1984-06-29 13:00:00 UTC,2445881.041667,29.6633,-93.4786,0090,-8.78,8.18,12.0000,313.0000
1984-06-29 13:30:00 UTC,2445881.062500,29.6633,-93.4786,0090,-6.70,11.14,13.0000,329.0000
1984-06-29 14:00:00 UTC,2445881.083333,29.6633,-93.4786,0090,-3.51,11.48,12.0000,343.0000
1984-06-29 14:30:00 UTC,2445881.104167,29.6633,-93.4786,0090,-1.87,8.80,9.0000,348.0000
1984-06-29 15:00:00 UTC,2445881.125000,29.6633,-93.4786,0090,-2.16,6.66,7.0000,342.0000
1984-06-29 15:30:00 UTC,2445881.145833,29.6633,-93.4786,0090,-2.94,4.05,5.0000,324.0000
1984-06-29 16:00:00 UTC,2445881.166667,29.6633,-93.4786,0090,-4.41,2.35,5.0000,298.0000
1984-06-29 16:30:00 UTC,2445881.187500,29.6633,-93.4786,0090,-7.13,3.63,8.0000,297.0000
1984-06-29 17:00:00 UTC,2445881.208333,29.6633,-93.4786,0090,-8.99,4.38,10.0000,296.0000
1984-06-29 17:30:00 UTC,2445881.229167,29.6633,-93.4786,0090,-8.09,3.95,9.0000,296.0000
1984-06-29 18:00:00 UTC,2445881.250000,29.6633,-93.4786,0090,-7.37,5.16,9.0000,305.0000
1984-06-29 18:30:00 UTC,2445881.270833,29.6633,-93.4786,0090,-5.03,3.27,6.0000,303.0000
1984-06-29 19:00:00 UTC,2445881.291667,29.6633,-93.4786,0090,-3.86,1.04,4.0000,285.0000
1984-06-29 19:30:00 UTC,2445881.312500,29.6633,-93.4786,0090,-3.56,1.82,4.0000,297.0000
1984-06-29 20:00:00 UTC,2445881.333333,29.6633,-93.4786,0090,-3.68,1.56,4.0000,293.0000
1984-06-29 20:30:00 UTC,2445881.354167,29.6633,-93.4786,0090,-4.98,-0.44,5.0000,265.0000
1984-06-29 21:00:00 UTC,2445881.375000,29.6633,-93.4786,0090,-5.77,-1.65,6.0000,254.0000
1984-06-29 21:30:00 UTC,2445881.395833,29.6633,-93.4786,0090,-4.73,-1.63,5.0000,251.0000
1984-06-29 22:00:00 UTC,2445881.416667,29.6633,-93.4786,0090,-3.32,-2.24,4.0000,236.0000
1984-06-29 22:30:00 UTC,2445881.437500,29.6633,-93.4786,0090,-1.22,-2.74,3.0000,204.0000
1984-06-29 23:00:00 UTC,2445881.458333,29.6633,-93.4786,0090,-0.31,-2.98,3.0000,186.0000
1984-06-29 23:30:00 UTC,2445881.479167,29.6633,-93.4786,0090,-0.93,-2.85,3.0000,198.0000
1984-06-30 00:00:00 UTC,2445881.500000,29.6633,-93.4786,0090,-2.33,-1.89,3.0000,231.0000
1984-06-30 00:30:00 UTC,2445881.520833,29.6633,-93.4786,0090,-2.76,-1.17,3.0000,247.0000
1984-06-30 01:00:00 UTC,2445881.541667,29.6633,-93.4786,0090,-2.00,-0.03,2.0000,269.0000
1984-06-30 01:30:00 UTC,2445881.562500,29.6633,-93.4786,0090,-0.60,0.80,1.0000,323.0000
1984-06-30 02:00:00 UTC,2445881.583333,29.6633,-93.4786,0090,0.45,0.89,1.0000,27.0000
1984-06-30 02:30:00 UTC,2445881.604167,29.6633,-93.4786,0090,1.87,4.64,5.0000,22.0000
1984-06-30 03:00:00 UTC,2445881.625000,29.6633,-93.4786,0090,2.18,8.73,9.0000,14.0000
1984-06-30 03:30:00 UTC,2445881.645833,29.6633,-93.4786,0090,1.67,11.88,12.0000,8.0000
1984-06-30 04:00:00 UTC,2445881.666667,29.6633,-93.4786,0090,1.71,13.90,14.0000,7.0000
1984-06-30 04:30:00 UTC,2445881.687500,29.6633,-93.4786,0090,2.26,12.80,13.0000,10.0000
1984-06-30 05:00:00 UTC,2445881.708333,29.6633,-93.4786,0090,2.10,10.80,11.0000,11.0000
1984-06-30 05:30:00 UTC,2445881.729167,29.6633,-93.4786,0090,0.87,9.96,10.0000,5.0000
1984-06-30 06:00:00 UTC,2445881.750000,29.6633,-93.4786,0090,-0.17,10.00,10.0000,359.0000
1984-06-30 06:30:00 UTC,2445881.770833,29.6633,-93.4786,0090,-2.48,8.65,9.0000,344.0000
1984-06-30 07:00:00 UTC,2445881.791667,29.6633,-93.4786,0090,-6.15,9.12,11.0000,326.0000
1984-06-30 07:30:00 UTC,2445881.812500,29.6633,-93.4786,0090,-8.63,8.34,12.0000,314.0000
1984-06-30 08:00:00 UTC,2445881.833333,29.6633,-93.4786,0090,-10.88,8.81,14.0000,309.0000
1984-06-30 08:30:00 UTC,2445881.854167,29.6633,-93.4786,0090,-11.18,8.43,14.0000,307.0000
1984-06-30 09:00:00 UTC,2445881.875000,29.6633,-93.4786,0090,-10.65,7.46,13.0000,305.0000
1984-06-30 09:30:00 UTC,2445881.895833,29.6633,-93.4786,0090,-10.60,5.63,12.0000,298.0000
1984-06-30 10:00:00 UTC,2445881.916667,29.6633,-93.4786,0090,-10.52,3.22,11.0000,287.0000
1984-06-30 10:30:00 UTC,2445881.937500,29.6633,-93.4786,0090,-10.86,1.72,11.0000,279.0000
1984-06-30 11:00:00 UTC,2445881.958333,29.6633,-93.4786,0090,-8.00,0.14,8.0000,271.0000
1984-06-30 11:30:00 UTC,2445881.979167,29.6633,-93.4786,0090,-4.98,-0.44,5.0000,265.0000
1984-06-30 12:00:00 UTC,2445882.000000,29.6633,-93.4786,0090,-2.00,-0.00,2.0000,270.0000
1984-06-30 12:30:00 UTC,2445882.020833,29.6633,-93.4786,0090,1.62,1.18,2.0000,54.0000
1984-06-30 13:00:00 UTC,2445882.041667,29.6633,-93.4786,0090,3.24,2.35,4.0000,54.0000
1984-06-30 13:30:00 UTC,2445882.062500,29.6633,-93.4786,0090,1.04,4.89,5.0000,12.0000
1984-06-30 14:00:00 UTC,2445882.083333,29.6633,-93.4786,0090,-0.97,7.94,8.0000,353.0000
1984-06-30 14:30:00 UTC,2445882.104167,29.6633,-93.4786,0090,0.63,8.98,9.0000,4.0000
1984-06-30 15:00:00 UTC,2445882.125000,29.6633,-93.4786,0090,2.33,8.69,9.0000,15.0000
1984-06-30 15:30:00 UTC,2445882.145833,29.6633,-93.4786,0090,2.07,7.73,8.0000,15.0000
1984-06-30 16:00:00 UTC,2445882.166667,29.6633,-93.4786,0090,0.63,8.98,9.0000,4.0000
1984-06-30 16:30:00 UTC,2445882.187500,29.6633,-93.4786,0090,-0.63,8.98,9.0000,356.0000
1984-06-30 17:00:00 UTC,2445882.208333,29.6633,-93.4786,0090,-1.56,8.86,9.0000,350.0000
1984-06-30 17:30:00 UTC,2445882.229167,29.6633,-93.4786,0090,-2.18,8.73,9.0000,346.0000
1984-06-30 18:00:00 UTC,2445882.250000,29.6633,-93.4786,0090,-2.92,9.56,10.0000,343.0000
1984-06-30 18:30:00 UTC,2445882.270833,29.6633,-93.4786,0090,-3.91,9.21,10.0000,337.0000
1984-06-30 19:00:00 UTC,2445882.291667,29.6633,-93.4786,0090,-4.69,8.83,10.0000,332.0000
1984-06-30 19:30:00 UTC,2445882.312500,29.6633,-93.4786,0090,-5.99,9.23,11.0000,327.0000
1984-06-30 20:00:00 UTC,2445882.333333,29.6633,-93.4786,0090,-6.29,7.77,10.0000,321.0000
1984-06-30 20:30:00 UTC,2445882.354167,29.6633,-93.4786,0090,-5.03,7.46,9.0000,326.0000
1984-06-30 21:00:00 UTC,2445882.375000,29.6633,-93.4786,0090,-0.85,6.95,7.0000,353.0000
1984-06-30 21:30:00 UTC,2445882.395833,29.6633,-93.4786,0090,2.16,6.66,7.0000,18.0000
1984-06-30 22:00:00 UTC,2445882.416667,29.6633,-93.4786,0090,1.89,2.33,3.0000,39.0000
1984-06-30 22:30:00 UTC,2445882.437500,29.6633,-93.4786,0090,1.85,-2.36,3.0000,142.0000
1984-06-30 23:00:00 UTC,2445882.458333,29.6633,-93.4786,0090,5.56,-5.75,8.0000,136.0000
1984-06-30 23:30:00 UTC,2445882.479167,29.6633,-93.4786,0090,10.06,-6.54,12.0000,123.0000
1984-07-01 00:00:00 UTC,2445882.500000,29.6633,-93.4786,0090,11.20,-4.30,12.0000,111.0000
1984-07-01 00:30:00 UTC,2445882.520833,29.6633,-93.4786,0090,9.61,-2.76,10.0000,106.0000
1984-07-01 01:00:00 UTC,2445882.541667,29.6633,-93.4786,0090,6.30,-4.93,8.0000,128.0000
1984-07-01 01:30:00 UTC,2445882.562500,29.6633,-93.4786,0090,2.28,-6.62,7.0000,161.0000
1984-07-01 02:00:00 UTC,2445882.583333,29.6633,-93.4786,0090,-2.44,-5.48,6.0000,204.0000
1984-07-01 02:30:00 UTC,2445882.604167,29.6633,-93.4786,0090,-5.25,-2.91,6.0000,241.0000
1984-07-01 03:00:00 UTC,2445882.625000,29.6633,-93.4786,0090,-6.12,-3.39,7.0000,241.0000
1984-07-01 03:30:00 UTC,2445882.645833,29.6633,-93.4786,0090,-8.28,-3.52,9.0000,247.0000
1984-07-01 04:00:00 UTC,2445882.666667,29.6633,-93.4786,0090,-8.98,-0.63,9.0000,266.0000
1984-07-01 04:30:00 UTC,2445882.687500,29.6633,-93.4786,0090,-9.98,0.70,10.0000,274.0000
1984-07-01 05:00:00 UTC,2445882.708333,29.6633,-93.4786,0090,-10.89,1.53,11.0000,278.0000
1984-07-01 05:30:00 UTC,2445882.729167,29.6633,-93.4786,0090,-11.85,1.88,12.0000,279.0000
1984-07-01 06:00:00 UTC,2445882.750000,29.6633,-93.4786,0090,-13.00,-0.23,13.0000,269.0000
1984-07-01 06:30:00 UTC,2445882.770833,29.6633,-93.4786,0090,-13.00,-0.00,13.0000,270.0000
1984-07-01 07:00:00 UTC,2445882.791667,29.6633,-93.4786,0090,-12.80,2.26,13.0000,280.0000
1984-07-01 07:30:00 UTC,2445882.812500,29.6633,-93.4786,0090,-11.74,2.49,12.0000,282.0000
1984-07-01 08:00:00 UTC,2445882.833333,29.6633,-93.4786,0090,-11.85,1.88,12.0000,279.0000
1984-07-01 08:30:00 UTC,2445882.854167,29.6633,-93.4786,0090,-13.86,1.95,14.0000,278.0000
1984-07-01 09:00:00 UTC,2445882.875000,29.6633,-93.4786,0090,-17.78,2.82,18.0000,279.0000
1984-07-01 09:30:00 UTC,2445882.895833,29.6633,-93.4786,0090,-18.71,3.30,19.0000,280.0000
1984-07-01 10:00:00 UTC,2445882.916667,29.6633,-93.4786,0090,-17.78,2.82,18.0000,279.0000
1984-07-01 10:30:00 UTC,2445882.937500,29.6633,-93.4786,0090,-14.85,2.09,15.0000,278.0000
1984-07-01 11:00:00 UTC,2445882.958333,29.6633,-93.4786,0090,-12.72,2.70,13.0000,282.0000
1984-07-01 11:30:00 UTC,2445882.979167,29.6633,-93.4786,0090,-10.57,3.03,11.0000,286.0000
1984-07-01 12:00:00 UTC,2445883.000000,29.6633,-93.4786,0090,-6.66,2.16,7.0000,288.0000
1984-07-01 12:30:00 UTC,2445883.020833,29.6633,-93.4786,0090,-7.61,2.47,8.0000,288.0000
1984-07-01 13:00:00 UTC,2445883.041667,29.6633,-93.4786,0090,-11.26,6.50,13.0000,300.0000
1984-07-01 13:30:00 UTC,2445883.062500,29.6633,-93.4786,0090,-9.96,8.36,13.0000,310.0000
1984-07-01 14:00:00 UTC,2445883.083333,29.6633,-93.4786,0090,-7.31,6.82,10.0000,313.0000
1984-07-01 14:30:00 UTC,2445883.104167,29.6633,-93.4786,0090,-5.74,8.19,10.0000,325.0000
1984-07-01 15:00:00 UTC,2445883.125000,29.6633,-93.4786,0090,-2.02,8.77,9.0000,347.0000
1984-07-01 15:30:00 UTC,2445883.145833,29.6633,-93.4786,0090,1.39,7.88,8.0000,10.0000
1984-07-01 16:00:00 UTC,2445883.166667,29.6633,-93.4786,0090,1.94,7.76,8.0000,14.0000
1984-07-01 16:30:00 UTC,2445883.187500,29.6633,-93.4786,0090,2.18,8.73,9.0000,14.0000
1984-07-01 17:00:00 UTC,2445883.208333,29.6633,-93.4786,0090,4.59,6.55,8.0000,35.0000
1984-07-01 17:30:00 UTC,2445883.229167,29.6633,-93.4786,0090,10.57,3.03,11.0000,74.0000
1984-07-01 18:00:00 UTC,2445883.250000,29.6633,-93.4786,0090,15.98,0.84,16.0000,87.0000
1984-07-01 18:30:00 UTC,2445883.270833,29.6633,-93.4786,0090,15.00,0.00,15.0000,90.0000
1984-07-01 19:00:00 UTC,2445883.291667,29.6633,-93.4786,0090,8.93,1.10,9.0000,83.0000
1984-07-01 19:30:00 UTC,2445883.312500,29.6633,-93.4786,0090,3.63,1.69,4.0000,65.0000
1984-07-01 20:00:00 UTC,2445883.333333,29.6633,-93.4786,0090,-0.28,1.98,2.0000,352.0000
1984-07-01 20:30:00 UTC,2445883.354167,29.6633,-93.4786,0090,-2.42,4.37,5.0000,331.0000
1984-07-01 21:00:00 UTC,2445883.375000,29.6633,-93.4786,0090,-1.55,5.80,6.0000,345.0000
1984-07-01 21:30:00 UTC,2445883.395833,29.6633,-93.4786,0090,0.28,3.99,4.0000,4.0000
1984-07-01 22:00:00 UTC,2445883.416667,29.6633,-93.4786,0090,1.76,2.43,3.0000,36.0000
1984-07-01 22:30:00 UTC,2445883.437500,29.6633,-93.4786,0090,2.65,4.24,5.0000,32.0000
1984-07-01 23:00:00 UTC,2445883.458333,29.6633,-93.4786,0090,2.54,5.44,6.0000,25.0000
1984-07-01 23:30:00 UTC,2445883.479167,29.6633,-93.4786,0090,2.18,3.35,4.0000,33.0000
1984-07-02 00:00:00 UTC,2445883.500000,29.6633,-93.4786,0090,0.98,0.19,1.0000,79.0000
1984-07-02 00:30:00 UTC,2445883.520833,29.6633,-93.4786,0090,1.85,0.75,2.0000,68.0000
1984-07-02 01:00:00 UTC,2445883.541667,29.6633,-93.4786,0090,3.78,1.30,4.0000,71.0000
1984-07-02 01:30:00 UTC,2445883.562500,29.6633,-93.4786,0090,6.06,3.50,7.0000,60.0000
1984-07-02 02:00:00 UTC,2445883.583333,29.6633,-93.4786,0090,7.43,6.69,10.0000,48.0000
1984-07-02 02:30:00 UTC,2445883.604167,29.6633,-93.4786,0090,10.29,6.18,12.0000,59.0000
1984-07-02 03:00:00 UTC,2445883.625000,29.6633,-93.4786,0090,10.46,3.40,11.0000,72.0000
1984-07-02 03:30:00 UTC,2445883.645833,29.6633,-93.4786,0090,10.79,5.26,12.0000,64.0000
1984-07-02 04:00:00 UTC,2445883.666667,29.6633,-93.4786,0090,11.14,6.70,13.0000,59.0000
1984-07-02 04:30:00 UTC,2445883.687500,29.6633,-93.4786,0090,11.48,6.10,13.0000,62.0000
1984-07-02 05:00:00 UTC,2445883.708333,29.6633,-93.4786,0090,10.78,7.27,13.0000,56.0000
1984-07-02 05:30:00 UTC,2445883.729167,29.6633,-93.4786,0090,8.18,8.78,12.0000,43.0000
1984-07-02 06:00:00 UTC,2445883.750000,29.6633,-93.4786,0090,5.00,8.66,10.0000,30.0000
1984-07-02 06:30:00 UTC,2445883.770833,29.6633,-93.4786,0090,2.78,8.56,9.0000,18.0000
1984-07-02 07:00:00 UTC,2445883.791667,29.6633,-93.4786,0090,1.39,7.88,8.0000,10.0000
1984-07-02 07:30:00 UTC,2445883.812500,29.6633,-93.4786,0090,0.97,6.93,7.0000,8.0000
1984-07-02 08:00:00 UTC,2445883.833333,29.6633,-93.4786,0090,0.44,4.98,5.0000,5.0000
1984-07-02 08:30:00 UTC,2445883.854167,29.6633,-93.4786,0090,-1.27,2.72,3.0000,335.0000
1984-07-02 09:00:00 UTC,2445883.875000,29.6633,-93.4786,0090,-4.00,0.07,4.0000,271.0000
1984-07-02 09:30:00 UTC,2445883.895833,29.6633,-93.4786,0090,-6.82,-1.57,7.0000,257.0000
1984-07-02 10:00:00 UTC,2445883.916667,29.6633,-93.4786,0090,-7.83,-1.66,8.0000,258.0000
1984-07-02 10:30:00 UTC,2445883.937500,29.6633,-93.4786,0090,-8.80,-1.87,9.0000,258.0000
1984-07-02 11:00:00 UTC,2445883.958333,29.6633,-93.4786,0090,-9.66,-2.59,10.0000,255.0000
1984-07-02 11:30:00 UTC,2445883.979167,29.6633,-93.4786,0090,-10.63,-2.85,11.0000,255.0000
1984-07-02 12:00:00 UTC,2445884.000000,29.6633,-93.4786,0090,-10.34,-3.76,11.0000,250.0000
1984-07-02 12:30:00 UTC,2445884.020833,29.6633,-93.4786,0090,-9.43,-5.67,11.0000,239.0000
1984-07-02 13:00:00 UTC,2445884.041667,29.6633,-93.4786,0090,-7.99,-6.02,10.0000,233.0000
1984-07-02 13:30:00 UTC,2445884.062500,29.6633,-93.4786,0090,-5.66,-5.66,8.0000,225.0000
1984-07-02 14:00:00 UTC,2445884.083333,29.6633,-93.4786,0090,-2.51,-6.54,7.0000,201.0000
1984-07-02 14:30:00 UTC,2445884.104167,29.6633,-93.4786,0090,0.00,-5.00,5.0000,180.0000
1984-07-02 15:00:00 UTC,2445884.125000,29.6633,-93.4786,0090,1.32,-2.70,3.0000,154.0000
1984-07-02 15:30:00 UTC,2445884.145833,29.6633,-93.4786,0090,2.57,-1.55,3.0000,121.0000
1984-07-02 16:00:00 UTC,2445884.166667,29.6633,-93.4786,0090,4.00,0.07,4.0000,89.0000
1984-07-02 16:30:00 UTC,2445884.187500,29.6633,-93.4786,0090,5.67,1.95,6.0000,71.0000
1984-07-02 17:00:00 UTC,2445884.208333,29.6633,-93.4786,0090,6.69,2.05,7.0000,73.0000
1984-07-02 17:30:00 UTC,2445884.229167,29.6633,-93.4786,0090,6.69,2.05,7.0000,73.0000
1984-07-02 18:00:00 UTC,2445884.250000,29.6633,-93.4786,0090,7.52,2.74,8.0000,70.0000
1984-07-02 18:30:00 UTC,2445884.270833,29.6633,-93.4786,0090,8.61,2.63,9.0000,73.0000
1984-07-02 19:00:00 UTC,2445884.291667,29.6633,-93.4786,0090,9.78,2.08,10.0000,78.0000
1984-07-02 19:30:00 UTC,2445884.312500,29.6633,-93.4786,0090,7.97,0.70,8.0000,85.0000
1984-07-02 20:00:00 UTC,2445884.333333,29.6633,-93.4786,0090,4.87,1.12,5.0000,77.0000
1984-07-02 20:30:00 UTC,2445884.354167,29.6633,-93.4786,0090,2.83,2.83,4.0000,45.0000
1984-07-02 21:00:00 UTC,2445884.375000,29.6633,-93.4786,0090,1.93,2.30,3.0000,40.0000
1984-07-02 21:30:00 UTC,2445884.395833,29.6633,-93.4786,0090,0.98,-0.17,1.0000,100.0000
1984-07-02 22:00:00 UTC,2445884.416667,29.6633,-93.4786,0090,0.78,-1.84,2.0000,157.0000
1984-07-02 22:30:00 UTC,2445884.437500,29.6633,-93.4786,0090,1.30,-3.78,4.0000,161.0000
1984-07-02 23:00:00 UTC,2445884.458333,29.6633,-93.4786,0090,1.81,-6.76,7.0000,165.0000
1984-07-02 23:30:00 UTC,2445884.479167,29.6633,-93.4786,0090,1.10,-8.93,9.0000,173.0000
1984-07-03 00:00:00 UTC,2445884.500000,29.6633,-93.4786,0090,0.00,-9.00,9.0000,180.0000
1984-07-03 00:30:00 UTC,2445884.520833,29.6633,-93.4786,0090,-0.35,-9.99,10.0000,182.0000
1984-07-03 01:00:00 UTC,2445884.541667,29.6633,-93.4786,0090,-1.34,-10.92,11.0000,187.0000
1984-07-03 01:30:00 UTC,2445884.562500,29.6633,-93.4786,0090,-1.25,-8.91,9.0000,188.0000
1984-07-03 02:00:00 UTC,2445884.583333,29.6633,-93.4786,0090,1.57,-6.82,7.0000,167.0000
1984-07-03 02:30:00 UTC,2445884.604167,29.6633,-93.4786,0090,5.25,-6.04,8.0000,139.0000
1984-07-03 03:00:00 UTC,2445884.625000,29.6633,-93.4786,0090,7.88,-6.16,10.0000,128.0000
1984-07-03 03:30:00 UTC,2445884.645833,29.6633,-93.4786,0090,8.39,-5.45,10.0000,123.0000
1984-07-03 04:00:00 UTC,2445884.666667,29.6633,-93.4786,0090,8.83,-4.69,10.0000,118.0000
1984-07-03 04:30:00 UTC,2445884.687500,29.6633,-93.4786,0090,8.99,-4.38,10.0000,116.0000
1984-07-03 05:00:00 UTC,2445884.708333,29.6633,-93.4786,0090,7.13,-3.63,8.0000,117.0000
1984-07-03 05:30:00 UTC,2445884.729167,29.6633,-93.4786,0090,4.89,-1.04,5.0000,102.0000
1984-07-03 06:00:00 UTC,2445884.750000,29.6633,-93.4786,0090,4.24,2.65,5.0000,58.0000
1984-07-03 06:30:00 UTC,2445884.770833,29.6633,-93.4786,0090,2.82,5.30,6.0000,28.0000
1984-07-03 07:00:00 UTC,2445884.791667,29.6633,-93.4786,0090,0.49,6.98,7.0000,4.0000
1984-07-03 07:30:00 UTC,2445884.812500,29.6633,-93.4786,0090,-1.94,7.76,8.0000,346.0000
1984-07-03 08:00:00 UTC,2445884.833333,29.6633,-93.4786,0090,-3.52,8.28,9.0000,337.0000
1984-07-03 08:30:00 UTC,2445884.854167,29.6633,-93.4786,0090,-5.29,7.28,9.0000,324.0000
1984-07-03 09:00:00 UTC,2445884.875000,29.6633,-93.4786,0090,-8.39,5.45,10.0000,303.0000
1984-07-03 09:30:00 UTC,2445884.895833,29.6633,-93.4786,0090,-11.48,6.10,13.0000,298.0000
1984-07-03 10:00:00 UTC,2445884.916667,29.6633,-93.4786,0090,-11.26,6.50,13.0000,300.0000
1984-07-03 10:30:00 UTC,2445884.937500,29.6633,-93.4786,0090,-9.43,5.67,11.0000,301.0000
1984-07-03 11:00:00 UTC,2445884.958333,29.6633,-93.4786,0090,-6.93,4.00,8.0000,300.0000
1984-07-03 11:30:00 UTC,2445884.979167,29.6633,-93.4786,0090,-6.12,3.39,7.0000,299.0000
1984-07-03 12:00:00 UTC,2445885.000000,29.6633,-93.4786,0090,-5.09,3.18,6.0000,302.0000
1984-07-03 12:30:00 UTC,2445885.020833,29.6633,-93.4786,0090,-3.28,2.29,4.0000,305.0000
1984-07-03 13:00:00 UTC,2445885.041667,29.6633,-93.4786,0090,-0.93,0.37,1.0000,292.0000
1984-07-03 13:30:00 UTC,2445885.062500,29.6633,-93.4786,0090,0.05,-1.00,1.0000,177.0000
1984-07-03 14:00:00 UTC,2445885.083333,29.6633,-93.4786,0090,1.49,-1.34,2.0000,132.0000
1984-07-03 14:30:00 UTC,2445885.104167,29.6633,-93.4786,0090,4.46,-2.27,5.0000,117.0000
1984-07-03 15:00:00 UTC,2445885.125000,29.6633,-93.4786,0090,6.49,-2.62,7.0000,112.0000
1984-07-03 15:30:00 UTC,2445885.145833,29.6633,-93.4786,0090,6.18,-3.29,7.0000,118.0000
1984-07-03 16:00:00 UTC,2445885.166667,29.6633,-93.4786,0090,3.44,-4.91,6.0000,145.0000
1984-07-03 16:30:00 UTC,2445885.187500,29.6633,-93.4786,0090,0.78,-4.94,5.0000,171.0000
1984-07-03 17:00:00 UTC,2445885.208333,29.6633,-93.4786,0090,1.59,-2.54,3.0000,148.0000
1984-07-03 17:30:00 UTC,2445885.229167,29.6633,-93.4786,0090,4.53,-2.11,5.0000,115.0000
1984-07-03 18:00:00 UTC,2445885.250000,29.6633,-93.4786,0090,5.48,-2.44,6.0000,114.0000
1984-07-03 18:30:00 UTC,2445885.270833,29.6633,-93.4786,0090,7.47,-2.87,8.0000,111.0000
1984-07-03 19:00:00 UTC,2445885.291667,29.6633,-93.4786,0090,8.34,-3.37,9.0000,112.0000
1984-07-03 19:30:00 UTC,2445885.312500,29.6633,-93.4786,0090,7.13,-3.63,8.0000,117.0000
1984-07-03 20:00:00 UTC,2445885.333333,29.6633,-93.4786,0090,5.48,-2.44,6.0000,114.0000
1984-07-03 20:30:00 UTC,2445885.354167,29.6633,-93.4786,0090,5.60,-2.15,6.0000,111.0000
1984-07-03 21:00:00 UTC,2445885.375000,29.6633,-93.4786,0090,4.17,-4.32,6.0000,136.0000
1984-07-03 21:30:00 UTC,2445885.395833,29.6633,-93.4786,0090,1.65,-5.77,6.0000,164.0000
1984-07-03 22:00:00 UTC,2445885.416667,29.6633,-93.4786,0090,0.00,-5.00,5.0000,180.0000
1984-07-03 22:30:00 UTC,2445885.437500,29.6633,-93.4786,0090,-0.69,-3.94,4.0000,190.0000
1984-07-03 23:00:00 UTC,2445885.458333,29.6633,-93.4786,0090,-0.70,-4.95,5.0000,188.0000
1984-07-03 23:30:00 UTC,2445885.479167,29.6633,-93.4786,0090,-0.09,-5.00,5.0000,181.0000
1984-07-04 00:00:00 UTC,2445885.500000,29.6633,-93.4786,0090,0.87,-4.92,5.0000,170.0000
1984-07-04 00:30:00 UTC,2445885.520833,29.6633,-93.4786,0090,2.05,-5.64,6.0000,160.0000
1984-07-04 01:00:00 UTC,2445885.541667,29.6633,-93.4786,0090,3.39,-6.12,7.0000,151.0000
1984-07-04 01:30:00 UTC,2445885.562500,29.6633,-93.4786,0090,4.36,-6.71,8.0000,147.0000
1984-07-04 02:00:00 UTC,2445885.583333,29.6633,-93.4786,0090,3.71,-5.94,7.0000,148.0000
1984-07-04 02:30:00 UTC,2445885.604167,29.6633,-93.4786,0090,3.09,-5.14,6.0000,149.0000
1984-07-04 03:00:00 UTC,2445885.625000,29.6633,-93.4786,0090,3.18,-5.09,6.0000,148.0000
1984-07-04 03:30:00 UTC,2445885.645833,29.6633,-93.4786,0090,3.36,-4.97,6.0000,146.0000
1984-07-04 04:00:00 UTC,2445885.666667,29.6633,-93.4786,0090,4.17,-4.32,6.0000,136.0000
1984-07-04 04:30:00 UTC,2445885.687500,29.6633,-93.4786,0090,4.64,-1.87,5.0000,112.0000
1984-07-04 05:00:00 UTC,2445885.708333,29.6633,-93.4786,0090,5.99,0.31,6.0000,87.0000
1984-07-04 05:30:00 UTC,2445885.729167,29.6633,-93.4786,0090,5.93,0.94,6.0000,81.0000
1984-07-04 06:00:00 UTC,2445885.750000,29.6633,-93.4786,0090,3.91,0.83,4.0000,78.0000
1984-07-04 06:30:00 UTC,2445885.770833,29.6633,-93.4786,0090,1.55,2.57,3.0000,31.0000
1984-07-04 07:00:00 UTC,2445885.791667,29.6633,-93.4786,0090,1.29,4.83,5.0000,15.0000
1984-07-04 07:30:00 UTC,2445885.812500,29.6633,-93.4786,0090,5.54,7.09,9.0000,38.0000
1984-07-04 08:00:00 UTC,2445885.833333,29.6633,-93.4786,0090,9.46,7.39,12.0000,52.0000
1984-07-04 08:30:00 UTC,2445885.854167,29.6633,-93.4786,0090,9.71,7.05,12.0000,54.0000
1984-07-04 09:00:00 UTC,2445885.875000,29.6633,-93.4786,0090,10.78,7.27,13.0000,56.0000
1984-07-04 09:30:00 UTC,2445885.895833,29.6633,-93.4786,0090,10.29,6.18,12.0000,59.0000